STARLINK-32824, 62817

Orbit data source: Space-Track

STARLINK-32824, 62817 is a payload satellite owned by SpaceX/Seattle (US) in LEO that was launched on Fri, 24 Jan 2025 UTC via an FALCON 9 launch vehicle from the Air Force Western Test Range (AFWTR). Payload-class satellites include a variety of spacecraft equipped with specific instruments for various scientific and technological missions. These include communications satellites like Starlink; space stations such as the ISS; scientific satellites like the Hubble; Earth observation satellites from companies like Planet Labs, Umbra, and HawkEye 360; GPS; miniature CubeSats for education and research; and military/defense satellites.

Loading next visibility...
Identifier
62817, 2025-018M
Orbit
LEO
Country
Flag of USUS
Related business
Manufacturer
SpaceX/Seattle
Mission
Operational Commercial Communications
Bus & Motor
STARLINK V2M, Unknown motor
Mass
730 kg wet, ~700 kg dry
Launch date (UTC)
2025-01-24 (1 year ago)
Launch vehicle
FALCON 9
Launch site
Air Force Western Test Range (AFWTR)
Object type
Payload
Rocket body
Debris
Shape & HBR
Box + 2 Pan, 17.7 m
Radar Cross Section
33.884 m², Large (>1 m²)

Expand to show TLE details & history
Last TLE update: 1 day ago

TLE from 1 day ago
0 STARLINK-32824
1 62817U 25018M   26167.39627191  .00013196  00000-0  45684-3 0  9990
2 62817  53.1590 210.9143 0001367  87.2428 272.8730 15.30202871 79236
Epoch: 2026-06-16T09:30Z
TLE epoch observation values (Epoch: 2026-06-16T09:30:37.893Z)
Latitude
0.00007°
Longitude
163.58755°
Altitude
476.059 km
Speed
7.629 km/s
True Right ascension
14h 03m 39s
True Declination
0° 00' 00"
Sunlit
Object was in full shadow at epoch
Visualization orbit readout
Latitude
Unknown
Longitude
Unknown
Altitude
Unknown
Speed
Unknown
Apparent Right ascension
Unknown
Apparent Declination
Unknown
Sunlit
N/A
Visualization observer readout
Local Sidereal Time
20:07:42
Azimuth
Unknown
Elevation
Unknown
Doppler factor
Unknown
Orbital elements
Apogee altitude
476.4 km
Perigee altitude
474.526 km
Semi-major axis
6,853.6 km
Eccentricity
0.00014
Inclination
53.159°
RAAN
210.9143°
Arg. of periapsis
87.2428°
True anomaly
272.85735°
Mean anomaly
272.873°
Eccentric anomaly
272.86518°
Mean motion
3.8253 °/min
Orbital period
94.11 mins
BSTAR
0.00045684
Loading maneuver chart data...
Computing Atmospheric mass density...
Loading historical data...
Loading historical data...
Loading historical data...
Loading historical data...
Loading historical data...
Loading historical data...
Loading historical data...

Documentation

Showing up to 5 results
|